Weather History for KTUS - October, 2012

Change the Weather History Date:

Friday, October 19, 2012

  Actual Average Record
Temperature  
Mean Temperature 75 °F 70 °F  
Max Temperature 91 °F 84 °F 99 °F (1921)
Min Temperature 59 °F 56 °F 33 °F (1908)
Degree Days  
Heating Degree Days 0 1  
Month to date heating degree days 1 5  
Since 1 July heating degree days 1 5  
Cooling Degree Days 10 6  
Month to date cooling degree days 199 162  
Year to date cooling degree days 3461 3069  
Growing Degree Days 25 (Base 50)    
Moisture  
Dew Point 42 °F    
Average Humidity 38    
Maximum Humidity 64    
Minimum Humidity 11    
Precipitation  
Precipitation 0.00 in 0.02 in 1.75 in (1972)
Month to date precipitation T 0.61  
Year to date precipitation 6.70 9.81  
Snow  
Snow 0.00 in - - ()
Month to date snowfall 0.0  
Snow Depth 0.00 in    
Sea Level Pressure  
Sea Level Pressure 29.85 in    
Wind  
Wind Speed 4 mph (SW)    
Max Wind Speed 10 mph    
Max Gust Speed 17 mph    
Visibility 10 miles    
Events      
T = Trace of Precipitation, MM = Missing Value Source: NWS Daily Summary

Daily Weather History Graph

Daily Weather History Graph

Search for Another Location

Airport or City:

Trip Planner

Search our weather history database for the weather conditions in past years. The results will help you decide how hot, cold, wet, or windy it might be!

Date:

Astronomy

Oct. 19, 2012 Rise Set
Actual Time 6:30 AM MST 5:46 PM MST
Civil Twilight 6:05 AM MST 6:10 PM MST
Nautical Twilight 5:37 AM MST 6:39 PM MST
Astronomical Twilight 5:09 AM MST 7:07 PM MST
Moon 11:05 AM MST (10/19) 9:39 PM MST (10/19)
Length of Visible Light 12h 04m
Length of Day
11h 15m
Waxing Crescent, 24% of the Moon is Illuminated
Oct 19
Waxing Crescent
Oct 21
First Quarter
Oct 29
Full
Nov 6
Last Quarter
Nov 13
New

Hourly Weather History & Observations

Time (MST) Temp. Dew Point Humidity Pressure Visibility Wind Dir Wind Speed Gust Speed Precip Events Conditions
12:53 AM 68.0 °F 52.0 °F 56% 29.92 in 10.0 mi Calm Calm - N/A   Clear
1:53 AM 64.9 °F 50.0 °F 58% 29.92 in 10.0 mi Calm Calm - N/A   Clear
2:53 AM 64.0 °F 51.1 °F 63% 29.91 in 10.0 mi SE 3.5 mph - N/A   Clear
3:53 AM 64.0 °F 51.1 °F 63% 29.89 in 10.0 mi South 4.6 mph - N/A   Clear
4:53 AM 61.0 °F 48.9 °F 64% 29.91 in 10.0 mi SSE 5.8 mph - N/A   Clear
5:53 AM 61.0 °F 48.9 °F 64% 29.91 in 10.0 mi SE 3.5 mph - N/A   Clear
6:53 AM 61.0 °F 48.9 °F 64% 29.93 in 10.0 mi SE 3.5 mph - N/A   Clear
7:53 AM 61.0 °F 48.9 °F 64% 29.95 in 10.0 mi Calm Calm - N/A   Clear
8:53 AM 70.0 °F 50.0 °F 49% 29.94 in 10.0 mi South 5.8 mph - N/A   Clear
9:53 AM 75.9 °F 48.9 °F 38% 29.91 in 10.0 mi Calm Calm - N/A   Clear
10:53 AM 80.1 °F 46.0 °F 30% 29.89 in 10.0 mi Calm Calm - N/A   Clear
11:53 AM 84.9 °F 39.0 °F 20% 29.86 in 10.0 mi Calm Calm - N/A   Clear
12:53 PM 87.1 °F 39.0 °F 18% 29.81 in 10.0 mi Variable 5.8 mph - N/A   Clear
1:53 PM 88.0 °F 36.0 °F 16% 29.79 in 10.0 mi West 5.8 mph - N/A   Clear
2:53 PM 90.0 °F 32.0 °F 13% 29.77 in 10.0 mi Variable 4.6 mph - N/A   Clear
3:53 PM 90.0 °F 28.9 °F 11% 29.76 in 10.0 mi West 6.9 mph - N/A   Clear
4:53 PM 88.0 °F 36.0 °F 16% 29.75 in 10.0 mi West 9.2 mph - N/A   Clear
5:53 PM 84.9 °F 36.0 °F 17% 29.76 in 10.0 mi WNW 3.5 mph - N/A   Clear
6:53 PM 82.0 °F 36.0 °F 19% 29.78 in 10.0 mi WNW 3.5 mph - N/A   Clear
7:53 PM 81.0 °F 37.9 °F 21% 29.80 in 10.0 mi NNW 9.2 mph - N/A   Clear
8:53 PM 80.1 °F 36.0 °F 20% 29.80 in 10.0 mi NW 5.8 mph - N/A   Clear
9:53 PM 73.0 °F 37.9 °F 28% 29.82 in 10.0 mi WSW 5.8 mph - N/A   Clear
10:53 PM 71.1 °F 37.0 °F 29% 29.82 in 10.0 mi WSW 4.6 mph - N/A   Clear
11:53 PM 69.1 °F 36.0 °F 30% 29.81 in 10.0 mi SSW 4.6 mph - N/A   Clear